TimeCDT,TemperatureF,Dew PointF,Humidity,Sea Level PressureIn,VisibilityMPH,Wind Direction,Wind SpeedMPH,Gust SpeedMPH,PrecipitationIn,Events,Conditions,WindDirDegrees,DateUTC
12:15 AM,66.4,60.8,82,29.88,10.0,WSW,4.6,-,N/A,,Clear,250,2013-06-11 05:15:00
12:35 AM,65.8,60.8,84,29.89,10.0,West,4.6,-,N/A,,Clear,270,2013-06-11 05:35:00
12:55 AM,65.3,60.6,85,29.89,10.0,West,5.8,-,N/A,,Clear,260,2013-06-11 05:55:00
1:15 AM,65.3,60.4,84,29.89,10.0,West,3.5,-,N/A,,Clear,270,2013-06-11 06:15:00
1:35 AM,64.4,60.3,86,29.90,10.0,West,4.6,-,N/A,,Clear,260,2013-06-11 06:35:00
1:55 AM,64.4,60.1,86,29.90,10.0,West,4.6,-,N/A,,Clear,260,2013-06-11 06:55:00
2:15 AM,63.1,59.9,89,29.90,10.0,West,4.6,-,N/A,,Clear,270,2013-06-11 07:15:00
2:35 AM,63.3,59.9,89,29.90,10.0,West,3.5,-,N/A,,Clear,270,2013-06-11 07:35:00
3:17 AM,62.6,59.0,88,29.92,10.0,West,3.5,-,N/A,,Clear,260,2013-06-11 08:17:00
3:42 AM,62.6,59.0,88,29.92,10.0,West,4.6,-,N/A,,Clear,270,2013-06-11 08:42:00
3:59 AM,62.6,59.0,88,29.92,10.0,West,4.6,-,N/A,,Clear,270,2013-06-11 08:59:00
4:19 AM,62.6,59.0,88,29.93,10.0,West,6.9,-,N/A,,Clear,260,2013-06-11 09:19:00
4:39 AM,62.6,59.0,88,29.94,10.0,West,5.8,-,N/A,,Clear,270,2013-06-11 09:39:00
5:00 AM,62.6,59.0,88,29.92,10.0,West,3.5,-,N/A,,Clear,260,2013-06-11 10:00:00
5:20 AM,60.8,57.2,88,29.93,10.0,WSW,3.5,-,N/A,,Clear,250,2013-06-11 10:20:00
5:40 AM,60.8,57.2,88,29.93,10.0,Calm,Calm,-,N/A,,Clear,0,2013-06-11 10:40:00
6:00 AM,60.8,59.0,94,29.94,10.0,Calm,Calm,-,N/A,,Clear,0,2013-06-11 11:00:00
6:20 AM,62.6,59.0,88,29.95,7.0,West,3.5,-,N/A,,Clear,260,2013-06-11 11:20:00
6:41 AM,64.4,60.8,88,29.95,10.0,WSW,4.6,-,N/A,,Clear,240,2013-06-11 11:41:00
7:21 AM,68.0,62.6,83,29.95,10.0,WSW,4.6,-,N/A,,Clear,250,2013-06-11 12:21:00
7:43 AM,69.8,62.6,78,29.95,10.0,WSW,3.5,-,N/A,,Clear,250,2013-06-11 12:43:00
8:02 AM,71.6,62.6,73,29.95,10.0,WSW,4.6,-,N/A,,Clear,240,2013-06-11 13:02:00
8:22 AM,73.4,62.6,69,29.95,10.0,WSW,4.6,-,N/A,,Clear,250,2013-06-11 13:22:00
8:39 AM,73.4,62.6,69,29.96,10.0,WSW,4.6,-,N/A,,Clear,250,2013-06-11 13:39:00
8:59 AM,73.4,62.6,69,29.95,10.0,West,8.1,-,N/A,,Clear,260,2013-06-11 13:59:00
9:19 AM,75.2,62.6,65,29.95,10.0,WSW,5.8,-,N/A,,Clear,250,2013-06-11 14:19:00
9:39 AM,75.2,62.6,65,29.94,10.0,West,3.5,-,N/A,,Clear,260,2013-06-11 14:39:00
9:59 AM,77.0,62.6,61,29.93,10.0,SW,3.5,-,N/A,,Clear,220,2013-06-11 14:59:00
10:19 AM,78.8,62.6,57,29.94,10.0,Calm,Calm,-,N/A,,Clear,0,2013-06-11 15:19:00
10:39 AM,78.8,62.6,57,29.94,10.0,South,3.5,-,N/A,,Clear,180,2013-06-11 15:39:00
10:59 AM,78.8,64.4,61,29.94,10.0,Calm,Calm,-,N/A,,Clear,0,2013-06-11 15:59:00
11:16 AM,80.6,62.6,54,29.94,10.0,WSW,5.8,-,N/A,,Clear,250,2013-06-11 16:16:00
11:40 AM,80.6,62.6,54,29.94,10.0,SSW,3.5,-,N/A,,Clear,210,2013-06-11 16:40:00
11:57 AM,80.6,62.6,54,29.93,10.0,SSE,11.5,-,N/A,,Clear,160,2013-06-11 16:57:00
12:17 PM,82.4,62.6,51,29.92,10.0,South,8.1,-,N/A,,Clear,190,2013-06-11 17:17:00
12:35 PM,82.8,61.7,49,29.92,10.0,WSW,9.2,16.1,N/A,,Clear,240,2013-06-11 17:35:00
12:37 PM,82.4,60.8,48,29.92,10.0,SSW,5.8,16.1,N/A,,Clear,200,2013-06-11 17:37:00
12:55 PM,83.1,61.5,48,29.90,10.0,SSW,5.8,-,N/A,,Scattered Clouds,200,2013-06-11 17:55:00
1:15 PM,84.4,62.8,48,29.90,10.0,SSW,5.8,-,N/A,,Scattered Clouds,200,2013-06-11 18:15:00
1:35 PM,85.3,60.8,44,29.89,10.0,SSW,3.5,-,N/A,,Scattered Clouds,210,2013-06-11 18:35:00
1:55 PM,84.0,58.6,42,29.90,10.0,Calm,Calm,-,N/A,,Mostly Cloudy,0,2013-06-11 18:55:00
2:15 PM,84.6,58.3,41,29.90,10.0,South,4.6,-,N/A,,Overcast,170,2013-06-11 19:15:00
2:35 PM,83.7,60.8,46,29.90,10.0,South,6.9,-,N/A,,Overcast,190,2013-06-11 19:35:00
2:55 PM,80.8,60.1,49,29.89,10.0,SSW,6.9,16.1,N/A,Thunderstorm,Thunderstorm,200,2013-06-11 19:55:00
3:15 PM,78.3,60.3,54,29.89,10.0,Calm,Calm,-,0.01,Rain-Thunderstorm,Light Thunderstorms and Rain,0,2013-06-11 20:15:00
3:35 PM,83.7,62.8,49,29.87,10.0,Calm,Calm,-,0.01,Thunderstorm,Mostly Cloudy,0,2013-06-11 20:35:00
3:55 PM,84.0,61.2,46,29.84,10.0,SE,3.5,-,0.01,Thunderstorm,Scattered Clouds,130,2013-06-11 20:55:00
4:15 PM,83.7,61.5,47,29.86,10.0,ENE,3.5,-,N/A,,Clear,70,2013-06-11 21:15:00
4:35 PM,82.8,63.3,52,29.85,10.0,ENE,4.6,-,N/A,,Clear,60,2013-06-11 21:35:00
4:55 PM,82.8,61.7,49,29.86,10.0,Calm,Calm,-,N/A,,Clear,0,2013-06-11 21:55:00
5:15 PM,82.9,59.2,44,29.87,10.0,North,4.6,-,N/A,,Mostly Cloudy,350,2013-06-11 22:15:00
5:35 PM,82.6,63.1,52,29.86,10.0,Calm,Calm,-,N/A,,Overcast,0,2013-06-11 22:35:00
5:55 PM,83.5,63.0,50,29.86,10.0,North,4.6,-,N/A,,Overcast,10,2013-06-11 22:55:00
6:15 PM,80.1,66.2,62,29.86,10.0,SE,3.5,-,N/A,,Overcast,130,2013-06-11 23:15:00
6:35 PM,82.9,65.7,56,29.85,10.0,SW,13.8,-,N/A,,Mostly Cloudy,220,2013-06-11 23:35:00
6:55 PM,82.0,65.7,57,29.84,10.0,SW,11.5,16.1,N/A,,Scattered Clouds,220,2013-06-11 23:55:00
7:15 PM,81.7,66.4,60,29.85,10.0,SW,12.7,-,N/A,,Clear,220,2013-06-12 00:15:00
7:35 PM,81.3,67.5,63,29.84,10.0,SSW,10.4,-,N/A,,Clear,210,2013-06-12 00:35:00
7:55 PM,79.2,67.3,67,29.84,10.0,SSW,8.1,-,N/A,,Clear,200,2013-06-12 00:55:00
8:15 PM,78.8,67.3,68,29.83,10.0,South,6.9,-,N/A,,Clear,190,2013-06-12 01:15:00
8:35 PM,78.4,67.5,69,29.83,10.0,South,8.1,-,N/A,,Clear,190,2013-06-12 01:35:00
8:55 PM,77.5,67.8,72,29.84,10.0,SSW,5.8,-,N/A,,Clear,200,2013-06-12 01:55:00
9:15 PM,76.3,68.0,75,29.86,10.0,South,4.6,-,N/A,,Clear,180,2013-06-12 02:15:00
9:35 PM,74.7,68.0,80,29.87,10.0,Calm,Calm,-,N/A,,Clear,0,2013-06-12 02:35:00
9:55 PM,75.6,67.6,76,29.87,10.0,South,4.6,-,N/A,,Clear,180,2013-06-12 02:55:00
10:15 PM,75.2,67.5,77,29.87,10.0,South,4.6,-,N/A,,Clear,180,2013-06-12 03:15:00
10:35 PM,74.8,67.5,78,29.86,10.0,South,5.8,-,N/A,,Clear,170,2013-06-12 03:35:00
10:55 PM,74.3,67.6,80,29.86,10.0,South,4.6,-,N/A,,Clear,180,2013-06-12 03:55:00
11:15 PM,73.9,67.6,81,29.85,10.0,South,8.1,-,N/A,,Clear,180,2013-06-12 04:15:00
11:35 PM,73.6,67.6,82,29.85,10.0,South,6.9,-,N/A,,Clear,180,2013-06-12 04:35:00
11:55 PM,73.4,67.6,82,29.85,10.0,South,8.1,-,N/A,,Clear,180,2013-06-12 04:55:00